Location: Cranbrook Institute of Science
(42.5830°N, 83.2450°W)
Time: 02:08:08
(UTC-04:00)

Daily predictions for brighter satellites

Satellite Brightness Start Highest point End
(mag) Time Altitude Azimuth Time Altitude Azimuth Time Altitude Azimuth
Cosmos 1842 Rocket 3.9 00:02:09 10° NNW 00:06:23 56° W 00:07:29 42° SW
Lacrosse 5 2.5 00:03:39 10° WSW 00:08:38 56° NW 00:13:39 10° NE
ATLAS 5 CENTAUR R/B 3.5 00:10:13 18° E 00:10:13 18° E 00:12:15 10° ENE
Cosmos 1833 Rocket 4.0 00:04:39 10° N 00:09:38 31° NE 00:12:21 21° E
CZ-2C R/B 3.8 00:09:09 31° SSW 00:11:41 53° W 00:17:23 10° NNW
Meteor 1-21 Rocket 4.4 00:09:05 31° SSW 00:12:04 73° W 00:17:56 10° N
Cosmos 220 Rocket 3.9 00:12:12 58° SSW 00:13:01 85° WNW 00:17:16 10° NNE
CZ-4 R/B 4.1 00:13:03 10° NNE 00:17:44 48° E 00:18:12 46° ESE
Okean 3 Rocket 3.6 00:18:47 55° ESE 00:19:05 57° E 00:23:23 10° NNE
SAR-Lupe-4 3.5 00:20:26 81° NNE 00:20:26 81° NNE 00:23:54 10° NNW
H-2A R/B 3.8 00:20:41 19° E 00:21:29 20° ENE 00:24:30 10° NNE
CENTAUR R/B 4.1 00:14:18 10° NNW 00:21:38 41° NE 00:28:57 12° ESE
Cosmos 1461 3.6 00:23:29 44° ESE 00:23:29 44° ESE 00:27:41 10° NE
Cosmos 1076 Rocket 3.3 00:23:48 71° SE 00:24:07 76° E 00:28:22 10° NNE
Aureole 3 Rocket 4.4 00:22:43 35° S 00:26:41 77° E 00:33:07 10° NNE
SL-27 R/B 4.4 00:24:33 10° N 00:27:23 21° ENE 00:27:39 21° ENE
USA 234 3.6 00:22:09 10° ENE 00:28:13 39° SE 00:28:51 38° SE
Cosmos 1340 4.3 00:25:45 10° NW 00:28:52 25° W 00:29:22 24° WSW
CZ-2C R/B 3.1 00:24:08 10° N 00:29:31 58° WNW 00:32:04 30° SW
Meteor 2-19 Rocket 4.5 00:24:47 10° N 00:30:57 71° E 00:32:52 45° SSE
APEX 3.7 00:29:19 10° NNW 00:31:33 45° NW 00:31:33 45° NW
Cosmos 1300 3.5 00:28:50 10° NNW 00:32:26 40° W 00:32:37 39° W
Cosmos 1455 3.1 00:29:55 10° N 00:33:13 37° ENE 00:33:13 37° ENE
ADEOS Rocket 3.4 00:28:24 10° NNE 00:33:59 45° E 00:35:21 39° SE
SL-14 R/B 4.5 00:36:58 31° WSW 00:37:44 34° WNW 00:41:19 10° N
SAR-Lupe-1 4.3 00:38:24 63° WNW 00:38:24 63° WNW 00:41:40 10° NNW
COBE Rocket 4.2 00:33:12 10° N 00:38:12 68° WNW 00:39:46 43° SW
Cosmos 1626 2.3 00:38:47 65° WNW 00:38:47 65° WNW 00:42:24 10° N
SL-08 ROCKET BODY 4.4 00:35:29 10° N 00:41:42 83° W 00:43:39 47° S
Cosmos 2251 Rocket 4.1 00:41:38 30° SW 00:44:05 54° WNW 00:49:20 10° NNE
USA 238 DEB 4.3 00:41:33 10° NW 00:48:18 46° WSW 00:50:25 37° SSW
USA 238 4.3 00:41:39 10° NW 00:48:25 47° WSW 00:50:32 37° SSW
Mayak -1.2 00:45:07 10° NNE 00:49:06 63° E 00:49:06 63° E
COSMOS 2406 4.2 00:46:37 10° NW 00:51:41 32° WSW 00:52:58 29° SW
Cosmos 2278 Rocket 2.4 00:50:17 36° SW 00:52:35 68° WNW 00:58:16 10° NNE
RESURS DK-1 3.7 00:54:01 29° ENE 00:54:01 29° ENE 00:56:43 10° NE
ATLAS 3B R/B 2.9 00:53:02 10° NW 00:59:21 49° WSW 01:00:49 42° SSW
NOSS 2-2 (C) 3.7 01:00:24 54° ENE 01:00:24 54° ENE 01:03:59 10° NE
Cosmos 1328 Rocket 3.8 00:55:42 10° N 00:59:57 54° E 01:00:05 53° E
Cosmos 1441 Rocket 3.9 00:57:57 10° N 01:01:20 45° ENE 01:01:20 45° ENE
Nadezhda 1 Rocket 4.4 01:01:26 42° SE 01:03:06 53° E 01:09:18 10° NNE
Cosmos 2151 3.5 01:03:28 47° E 01:03:28 47° E 01:07:21 10° NNE
Cosmos 2221 4.0 01:00:07 10° NNW 01:03:41 25° W 01:04:11 25° W
NOSS 3-2 (A) 4.2 00:56:36 10° NW 01:04:05 60° WSW 01:06:52 41° S
Cosmos 405 Rocket 3.6 01:03:08 10° N 01:06:14 38° ENE 01:06:14 38° ENE
Meteor 1-27 4.2 01:01:04 10° N 01:06:56 86° W 01:08:18 55° S
Cosmos 1703 3.5 01:09:11 61° WNW 01:09:11 61° WNW 01:12:50 10° N
SL-19 R/B 4.4 01:03:39 10° N 01:09:12 65° WNW 01:10:48 44° SW
Cosmos 1241 Rocket 4.5 01:13:54 52° SSE 01:15:01 60° ESE 01:21:09 10° NE
ALOS 2 2.6 01:16:07 66° WSW 01:16:09 66° WSW 01:20:31 10° NNW
Cosmos 1992 Rocket 3.9 01:11:20 10° NNW 01:16:32 72° WSW 01:17:09 64° SSW
ATLAS 2AS CENTAUR R/B 4.5 01:09:55 10° WSW 01:17:07 36° NW 01:24:29 10° NNE
CZ-4B R/B 3.5 01:14:58 10° NNE 01:20:17 89° ESE 01:21:12 63° SSW
Cosmos 2074 Rocket 4.0 01:16:57 10° N 01:23:13 78° W 01:24:52 51° SSW
SL-8 R/B 4.2 01:18:53 10° W 01:23:40 59° NNW 01:28:26 10° ENE
Cosmos 1500 Rocket 3.9 01:24:31 53° E 01:24:31 53° E 01:28:37 10° NNE
NOSS 3-2 (C) 4.2 01:18:26 10° NW 01:25:55 59° WSW 01:28:32 42° S
Cosmos 2369 Rocket 3.9 01:26:05 18° ESE 01:26:36 18° E 01:30:22 10° ENE
Cosmos 2297 3.6 01:28:26 56° SSW 01:29:42 87° WNW 01:35:28 10° NNE
CZ-4C R/B 3.9 01:31:46 49° W 01:31:46 49° W 01:35:16 10° NNW
Cosmos 1140 Rocket 4.3 01:35:37 35° ESE 01:35:54 35° ESE 01:40:31 10° NE
Cosmos 2058 3.3 01:36:01 56° WNW 01:36:01 56° WNW 01:40:03 10° N
Cosmos 2082 Rocket 2.3 01:34:24 10° NNW 01:40:03 60° WSW 01:40:50 55° SW
Cosmos 1809 Rocket 4.4 01:34:15 10° NNW 01:40:18 73° W 01:41:45 53° SSW
Cosmos 407 Rocket 3.3 01:40:19 67° SSE 01:40:50 75° ESE 01:46:01 10° NNE
SL-24 R/B 4.1 01:41:56 10° NNE 01:46:17 79° ESE 01:46:32 75° SE
Cosmos 1190 Rocket 3.9 01:48:01 66° SSW 01:48:47 89° ESE 01:54:02 10° NNE
Cosmos 1610 Rocket 4.5 01:43:06 10° NNW 01:49:21 73° W 01:50:55 51° SSW
Cosmos 1515 Rocket 3.7 01:46:48 10° NNW 01:51:05 60° W 01:51:05 60° W
Cosmos 614 Rocket 4.2 01:51:03 50° SE 01:51:32 51° ESE 01:56:31 10° NNE
MOS 1 Rocket 3.7 01:46:59 10° NNE 01:51:55 51° E 01:52:24 49° ESE
Lacrosse 5 4.4 01:48:52 10° WNW 01:52:35 20° NNW 01:56:17 10° NNE
Meteor 2-10 Rocket 3.3 01:47:34 10° NNW 01:52:40 80° W 01:53:22 66° SSW
ATLAS 5 CENTAUR R/B 2.4 01:51:43 38° W 01:52:59 48° NW 01:57:49 10° NNE
NOSS 3-4 (A) 4.5 01:48:51 17° WSW 01:53:20 42° NW 01:59:30 10° NNE
NOSS 3-4 (C) 4.4 01:48:59 17° WSW 01:53:25 43° NW 01:59:35 10° NNE
Cosmos 1833 Rocket 3.2 01:48:25 10° NW 01:53:38 40° WSW 01:54:01 40° WSW
H-2A R/B 3.0 01:57:47 33° W 01:57:47 33° W 02:01:02 10° NNW
Cosmos 1151 Rocket 3.6 01:56:53 10° NNW 02:00:46 45° W 02:00:46 45° W
Cosmos 2228 Rocket 3.5 01:57:19 10° NNW 02:01:36 48° W 02:01:36 48° W
Cosmos 2154 Rocket 4.0 01:55:45 10° NNW 02:02:05 71° W 02:03:48 49° SSW
In-Cosmos 22 Rocket 4.3 02:01:15 49° SE 02:02:13 57° E 02:07:28 10° NNE
Cosmos 2181 Rocket 4.2 02:02:48 45° SSE 02:04:44 66° E 02:10:57 10° NNE
Cosmos 2341 Rocket 4.0 02:03:13 10° N 02:09:36 89° E 02:11:37 47° S
USA 234 3.5 02:04:57 10° NE 02:11:25 65° NW 02:16:09 20° WSW
deb Chang Zheng 4 4.2 02:08:20 10° N 02:12:32 44° WNW 02:13:03 42° W
CENTAUR R/B 3.2 02:04:54 10° NW 02:12:49 61° WSW 02:16:04 39° S
Cosmos 2098 Rocket 4.5 02:08:19 10° N 02:15:54 72° E 02:19:03 36° SSE
ADEOS Rocket 4.3 02:14:28 10° N 02:19:19 29° WNW 02:22:18 20° WSW
Mayak 1.3 02:22:39 10° NW 02:24:21 12° WNW 02:25:43 11° W
Cosmos 1943 Rocket 2.8 02:23:39 36° SE 02:24:49 41° ESE 02:30:00 10° NE
Cosmos 1892 2.9 02:25:36 60° ENE 02:25:36 60° ENE 02:29:09 10° NNE
BREEZE-M DEB (TANK) 4.3 02:10:22 10° WSW 02:25:49 87° NNW 02:30:13 10° ENE
Cosmos 2218 Rocket 4.1 02:21:08 10° N 02:27:18 68° E 02:29:50 37° SSE
Cosmos 1023 Rocket 4.4 02:27:46 57° SW 02:28:45 76° WNW 02:33:51 10° NNE
RESURS DK-1 4.2 02:29:53 20° W 02:31:04 23° NW 02:34:27 10° N
Cosmos 1408 4.3 02:32:31 24° E 02:32:53 24° E 02:35:56 10° NE
BREEZE-M DEB (TANK) 4.2 02:34:07 39° S 02:35:47 47° SSE 02:39:12 10° ENE
SL-8 Rocket 3.9 02:30:21 10° N 02:36:38 86° W 02:38:56 42° S
CZ-2D R/B 3.8 02:36:58 10° NE 02:41:12 24° E 02:43:41 17° SE
BREEZE-M DEB (TANK) 4.1 02:39:30 10° NW 02:41:21 22° NNE 02:43:30 10° ENE
Meteor 2-3 Rocket 4.1 02:41:43 36° SSE 02:43:48 56° E 02:49:26 10° NNE
Cosmos 405 4.3 02:43:43 31° E 02:43:49 31° E 02:47:00 10° NNE
Timation 2 Rocket 4.1 02:37:19 10° NNW 02:44:02 86° WSW 02:47:40 31° SSE
Lacrosse 4 Rocket 4.0 02:43:02 10° ESE 02:44:03 11° ESE 02:45:18 10° E
Cosmos 1805 Rocket 3.7 02:44:13 54° WSW 02:44:38 56° W 02:48:58 10° N
Cosmos 304 Rocket 3.8 02:43:49 10° NNW 02:48:37 74° ENE 02:50:15 41° SE
SL-16 R/B 3.5 02:43:58 12° SE 02:49:19 43° ENE 02:55:05 10° N
Cosmos 1689 Rocket 2.9 02:52:15 48° ENE 02:52:15 48° ENE 02:55:02 10° N
Cosmos 371 Rocket 4.0 02:48:41 10° NW 02:53:07 36° WSW 02:53:10 36° WSW
COSMOS 2487 3.8 02:52:41 10° NW 02:54:57 29° WNW 02:54:57 29° WNW
Cosmos 1862 Rocket 4.4 02:51:56 10° N 02:56:17 47° ENE 02:58:11 29° SE
Cosmos 1741 Rocket 4.0 02:55:01 47° S 02:56:33 79° ESE 03:01:51 10° NNE
BREEZE M DEB (TANK) 3.9 02:47:51 10° W 02:57:19 48° NNW 03:00:29 10° NE
Sich 1 3.1 02:57:34 54° WSW 02:58:09 60° W 03:02:30 10° N
Cosmos 2208 Rocket 4.5 02:54:01 10° NNW 02:59:21 60° ENE 03:03:00 20° SE
Cosmos 2366 rocket 3.9 02:55:37 10° NNW 03:01:45 73° W 03:04:13 38° SSW
CZ-4B R/B 1.5 03:04:07 62° NNW 03:04:07 62° NNW 03:06:48 10° NNW
OPS 8737 4.4 03:06:06 69° WNW 03:06:11 70° NW 03:09:31 10° NNE
Cosmos 1707 Rocket 4.0 03:03:48 10° NNW 03:08:00 44° W 03:08:24 42° WSW
CZ-4C R/B 4.2 03:09:48 31° WNW 03:09:48 31° WNW 03:12:36 10° NNW
Cosmos 2369 Rocket 2.4 03:07:52 37° SW 03:10:03 65° WNW 03:15:41 10° NNE
Nadezhda 3 Rocket 4.3 03:08:04 28° SSE 03:11:33 63° E 03:17:49 10° NNE
SL-08 R/B 4.0 03:10:20 20° SE 03:13:25 53° ENE 03:18:00 10° N
Cosmos 1633 Rocket 3.3 03:13:17 46° WSW 03:14:10 55° W 03:18:31 10° N
Cosmos 1470 Rocket 3.5 03:16:49 46° S 03:18:09 84° E 03:22:38 10° N
Cosmos 468 Rocket 4.1 03:13:38 10° NNW 03:18:47 72° ENE 03:22:21 20° SSE
Meteor 2-15 Rocket 4.4 03:16:09 33° S 03:19:05 85° E 03:25:12 10° N
Resurs 1-4 Rocket 2.6 03:15:20 10° NNE 03:20:34 54° E 03:23:16 27° SSE
Meteor 2-15 4.5 03:25:28 33° SSW 03:28:16 68° W 03:34:19 10° N
Cosmos 1606 2.6 03:29:52 10° N 03:33:40 78° W 03:34:41 47° S
MOZ.5/SAFIR/RUBIN 5/SL-8 4.3 03:31:57 15° SSE 03:35:42 58° ENE 03:40:18 10° N
H-2A R/B 2.5 03:32:24 10° NNE 03:36:27 66° ESE 03:37:55 36° S
Cosmos 1570 Rocket 4.1 03:32:52 10° NNW 03:38:01 56° WSW 03:40:22 31° SSW
ATLAS 5 CENTAUR R/B 4.5 03:37:02 10° NW 03:39:03 12° NNW 03:41:08 10° N
Cosmos 1933 Rocket 3.5 03:39:11 39° SSW 03:40:40 67° W 03:45:01 10° N
Cosmos 1825 2.5 03:42:06 40° WSW 03:42:56 48° W 03:46:37 10° N
GP-B 3.4 03:41:27 10° N 03:45:47 53° W 03:47:26 34° SW
Meteor 2-6 Rocket 4.2 03:41:23 10° N 03:46:48 81° E 03:51:12 16° SSE
PSLV R/B 4.4 03:45:35 15° SSE 03:48:58 64° ENE 03:53:09 10° N
Cosmos 1437 Rocket 4.2 03:46:50 16° SSE 03:49:35 35° E 03:53:22 10° NNE
Cosmos 2242 Rocket 4.1 03:45:53 10° NNW 03:50:07 42° W 03:51:33 32° SW
Cosmos 1833 4.1 03:44:39 10° NNW 03:50:12 69° WSW 03:54:53 15° SSE
Cosmos 1782 2.8 03:47:27 10° NNW 03:51:24 64° W 03:52:56 34° SSW
AQUA 3.9 03:47:11 10° N 03:51:56 68° WNW 03:54:18 29° SSW
Meteor 1-10 Rocket 4.1 03:51:13 10° NNW 03:56:48 83° W 04:01:26 16° S
Cosmos 1656 Rocket 3.7 03:56:02 26° SSW 03:59:21 80° WNW 04:05:02 10° NNE
Meteor 1-27 Rocket 4.2 03:55:29 10° N 04:01:15 66° ENE 04:07:05 10° SSE
Cosmos 1821 Rocket 4.0 03:56:42 10° NNW 04:02:57 69° W 04:08:03 16° S
IRS-1C 4.2 03:58:22 10° N 04:03:41 69° WNW 04:07:02 23° SSW
NPP 4.2 04:01:02 10° N 04:06:08 45° WNW 04:09:17 22° SW
Cosmos 1408 4.3 04:06:55 19° W 04:07:55 21° WNW 04:10:47 10° NNW
Cosmos 1943 Rocket 3.4 04:05:09 16° WSW 04:08:40 30° NW 04:13:33 10° N
ARIANE 5 R/B 2.4 04:05:24 10° NNE 04:10:26 89° ESE 04:14:00 19° SSW
ATLAS 5 CENTAUR R/B 4.0 04:09:06 21° SSW 04:13:02 73° ESE 04:33:40 10° NE
Cosmos 1869 Rocket 3.5 04:12:49 20° S 04:15:47 89° E 04:20:10 10° N
Cosmos 2219 3.9 04:11:57 10° NNW 04:17:32 56° ENE 04:23:03 10° SE
ADEOS 4.0 04:15:16 10° NNE 04:20:27 58° E 04:25:30 10° S
CZ-2D R/B 2.7 04:16:26 10° N 04:21:26 45° WNW 04:25:01 18° SW
COSMOS 2455 3.0 04:15:46 10° NNW 04:21:49 78° ENE 04:27:49 10° SE
Lacrosse 4 Rocket 1.5 04:19:22 23° SW 04:22:04 75° WNW 04:26:33 10° NNE
Cosmos 1862 3.4 04:21:45 22° SSW 04:24:07 58° W 04:28:03 10° N
Cosmos 1867 3.6 04:21:35 20° SSW 04:25:29 88° WNW 04:31:00 10° NNE
Cosmos 1763 Rocket 3.8 04:21:50 10° NNW 04:26:37 43° WSW 04:30:54 13° S
PSLV R/B 2.8 04:25:02 22° WSW 04:26:42 65° S 04:29:39 10° E
CZ-2D R/B 3.6 04:23:53 10° NNE 04:28:12 76° ESE 04:31:50 13° S
SL-16 R/B 3.3 04:29:04 16° SSW 04:33:01 32° W 04:38:27 10° NW
Cosmos 1703 Rocket 4.1 04:30:28 10° NNW 04:34:36 39° W 04:37:46 15° SSW
ADEOS II 2.5 04:30:58 10° NNE 04:36:11 61° E 04:41:23 10° S
Cosmos 1818 3.9 04:34:02 10° NW 04:39:11 43° WSW 04:44:17 10° S
Spot 4 Rocket 4.5 04:36:05 10° N 04:41:01 48° WNW 04:45:13 14° SW
BREEZE-M R/B 4.0 04:36:58 13° SSW 04:42:02 32° SSE 04:45:07 10° E
ATLAS CENTAUR R/B 3.4 04:39:45 10° SSE 04:42:24 19° ESE 04:45:11 10° ENE
Cosmos 44 3.8 04:43:09 11° SSW 04:47:26 54° ESE 04:52:15 10° NE
Cosmos 2297 Rocket 3.7 04:43:47 10° NNW 04:49:06 40° ENE 04:54:24 10° SE
SL-8 R/B 4.1 04:45:02 10° WNW 04:49:51 68° NNE 04:54:38 10° ESE
Meteor 1-4 Rocket 2.7 04:47:59 13° SSW 04:51:02 59° WNW 04:54:41 10° N
ASTEX 1 3.8 04:46:24 10° SSE 04:51:22 70° E 04:56:22 10° N
Cosmos 540 Rocket 3.4 04:46:42 10° NNW 04:51:48 65° WSW 04:56:50 10° S
UNKNOWN OBJECT B 3.1 04:50:01 10° N 04:53:53 54° WNW 04:57:38 11° SSW
Cosmos 841 Rocket 4.1 04:49:26 10° NW 04:54:11 36° WSW 04:58:52 10° SSW
Cosmos 2369 Rocket 4.4 04:52:59 10° WNW 04:55:14 12° NW 04:57:28 10° NNW
Okean 1-7 3.9 04:52:03 10° NNW 04:55:57 32° W 04:59:50 10° SSW
Cosmos 2227 Rocket 3.2 04:51:30 10° NNW 04:57:03 51° ENE 05:02:33 10° SE
Cosmos 1605 Rocket 4.2 04:52:58 10° NNW 04:58:50 52° W 05:04:44 10° SSW
Resurs 1-4 Rocket 3.7 04:56:03 10° NNW 04:59:59 21° WNW 05:03:55 10° WSW
Cosmos 1733 Rocket 3.0 05:02:27 10° S 05:06:46 88° WNW 05:11:07 10° N
Helios 1A Rocket 3.4 05:03:34 10° N 05:07:24 43° WNW 05:11:14 10° SW
Cosmos 2100 Rocket 4.2 05:01:51 10° N 05:08:02 78° E 05:14:15 10° SSE
Cosmos 1184 Rocket 4.1 05:07:10 10° NW 05:09:51 23° W 05:12:31 10° SSW
Cosmos 1354 Rocket 4.1 05:07:37 10° SSW 05:12:48 65° WNW 05:18:01 10° NNE
Okean 3 3.6 05:11:34 10° N 05:15:46 78° E 05:19:57 10° S
Cosmos 1459 Rocket 4.2 05:09:53 10° N 05:16:19 83° E 05:22:40 10° S
Cosmos 1674 Rocket 3.6 05:12:35 10° N 05:16:56 85° E 05:21:15 10° S
Meteor 1-25 Rocket 4.3 05:13:43 10° S 05:19:17 86° E 05:24:52 10° N
Cosmos 1908 Rocket 4.4 05:16:16 10° S 05:20:36 53° E 05:24:57 10° NNE
Lacrosse 5 4.0 05:17:07 10° NW 05:21:40 32° NNE 05:26:12 10° E
